GW0409 Weather Reports


Display with metric or nautical units.
time (UTC)temp
F
wind
direction
speed
MPH
gust
MPH
rain 1hr
in
rain 24hr
in
rain mn
in
humidity
%
barometer
mb
20260502152018 42 324 0.0 2.0 0.00 0.00 0.00 81 1021.1
20260502151019 42 244 0.0 1.0 0.00 0.00 0.00 82 1021.3
20260502123018 37 326 2.0 4.0 0.00 0.00 0.00 90 1020.5
20260502122040 37 344 2.0 3.0 0.00 0.00 0.00 91 1020.4
20260502121020 38 309 1.0 3.0 0.00 0.00 0.00 90 1020.4
20260502115041 38 312 1.0 3.0 0.00 0.00 0.00 87 1020.3
20260502114021 38 344 1.0 2.0 0.00 0.00 0.00 87 1020.3
20260502113021 39 346 1.0 2.0 0.00 0.00 0.00 86 1020.3
20260502112017 39 15 2.0 4.0 0.00 0.00 0.00 87 1020.2
20260502111038 39 332 2.0 3.0 0.00 0.00 0.00 86 1020.1
20260502110021 40 319 2.0 3.0 0.00 0.00 0.00 84 1020.1
20260502105020 40 316 1.0 2.0 0.00 0.00 0.00 82 1020.1
20260502104017 41 310 1.0 2.0 0.00 0.00 0.00 81 1020.0
20260502103019 42 231 0.0 1.0 0.00 0.00 0.00 79 1019.9
20260502102017 42 0.0 0.0 0.00 0.00 0.00 78 1019.9
20260502101020 42 351 0.0 3.0 0.00 0.00 0.00 77 1019.9
20260502091017 46 313 1.0 3.0 0.00 0.00 0.00 66 1019.5
20260502071018 51 340 3.0 4.0 0.00 0.00 0.00 56 1018.8
20260502070020 52 336 1.0 2.0 0.00 0.00 0.00 54 1018.8
20260502065018 53 0.0 0.0 0.00 0.00 0.00 51 1018.8
20260502064038 53 0.0 0.0 0.00 0.00 0.00 51 1018.8
20260502063019 54 192 0.0 2.0 0.00 0.00 0.00 49 1018.8
20260502062019 55 0 3.0 4.0 0.00 0.00 0.00 48 1018.7
20260502061019 55 11 0.0 2.0 0.00 0.00 0.00 48 1018.7
20260502060019 55 1 1.0 3.0 0.00 0.00 0.00 47 1018.7
20260502055019 54 358 0.0 2.0 0.00 0.00 0.00 48 1018.7
20260502054019 55 343 2.0 3.0 0.00 0.00 0.00 49 1018.6
20260502053020 55 332 2.0 3.0 0.00 0.00 0.00 46 1018.6
20260502052017 54 0.0 0.0 0.00 0.00 0.00 49 1018.6
20260502051022 55 343 2.0 3.0 0.00 0.00 0.00 48 1018.5
20260502050021 56 357 1.0 3.0 0.00 0.00 0.00 46 1018.4
20260502045020 56 0.0 0.0 0.00 0.00 0.00 45 1018.3
20260502044017 55 353 0.0 2.0 0.00 0.00 0.00 47 1018.3
20260502043017 56 356 1.0 3.0 0.00 0.00 0.00 47 1018.2
20260502042017 57 1 0.0 2.0 0.00 0.00 0.00 43 1018.1
20260502041021 57 0.0 0.0 0.00 0.00 0.00 44 1018.1
20260502040018 57 6 0.0 2.0 0.00 0.00 0.00 44 1017.9
20260502035019 57 343 0.0 3.0 0.00 0.00 0.00 42 1017.8
20260502034018 58 0.0 0.0 0.00 0.00 0.00 40 1017.7
20260502033019 59 2 2.0 3.0 0.00 0.00 0.00 39 1017.6
20260502032021 60 8 1.0 2.0 0.00 0.00 0.00 36 1017.5
20260502031039 61 355 2.0 3.0 0.00 0.00 0.00 35 1017.4
20260502030019 62 350 1.0 3.0 0.00 0.00 0.00 35 1017.3
20260502025021 63 0 1.0 2.0 0.00 0.00 0.00 34 1017.2
20260502024019 63 2 2.0 4.0 0.00 0.00 0.00 33 1017.1
20260502023037 63 285 2.0 6.0 0.00 0.00 0.00 33 1017.1
20260502022041 64 16 2.0 5.0 0.00 0.00 0.00 33 1017.0
20260502021020 65 314 1.0 6.0 0.00 0.00 0.00 32 1017.0
20260502020018 65 209 0.0 3.0 0.00 0.00 0.00 32 1016.9
20260502015018 64 82 2.0 6.0 0.00 0.00 0.00 34 1016.9
20260502014017 65 31 1.0 6.0 0.00 0.00 0.00 33 1017.0
20260502013022 64 30 2.0 6.0 0.00 0.00 0.00 34 1017.1
20260502012038 64 13 1.0 5.0 0.00 0.00 0.00 34 1017.1
20260502011020 64 334 3.0 7.0 0.00 0.00 0.00 34 1017.1
20260502010040 65 13 2.0 6.0 0.00 0.00 0.00 34 1017.1
20260502005018 65 62 2.0 6.0 0.00 0.00 0.00 33 1017.2
20260502004018 65 296 2.0 4.0 0.00 0.00 0.00 31 1017.2
20260502003041 65 191 2.0 8.0 0.00 0.00 0.00 34 1017.1
20260502002020 65 247 2.0 6.0 0.00 0.00 0.00 33 1017.2
20260502001019 64 262 2.0 5.0 0.00 0.00 0.00 34 1017.3
20260502000039 65 235 1.0 3.0 0.00 0.00 0.00 34 1017.3
20260501235019 64 242 2.0 6.0 0.00 0.00 0.00 34 1017.4
20260501234016 63 245 3.0 7.0 0.00 0.00 0.00 34 1017.4
20260501233041 61 265 2.0 6.0 0.00 0.00 0.00 37 1017.6
20260501232020 62 251 2.0 6.0 0.00 0.00 0.00 37 1017.6
20260501231122 62 238 2.0 6.0 0.00 0.00 0.00 36 1017.7
20260501230039 61 227 3.0 7.0 0.00 0.00 0.00 37 1017.8
20260501225018 61 275 2.0 5.0 0.00 0.00 0.00 37 1017.7
20260501224017 62 332 2.0 6.0 0.00 0.00 0.00 37 1017.8
20260501223041 61 250 2.0 6.0 0.00 0.00 0.00 39 1018.0
20260501222058 62 338 2.0 6.0 0.00 0.00 0.00 38 1018.0
20260501221018 62 318 1.0 5.0 0.00 0.00 0.00 38 1018.1
20260501220018 62 279 1.0 4.0 0.00 0.00 0.00 38 1018.1
20260501215019 62 312 3.0 10.0 0.00 0.00 0.00 38 1018.2
20260501214021 61 244 3.0 9.0 0.00 0.00 0.00 40 1018.2
20260501213019 62 302 4.0 8.0 0.00 0.00 0.00 39 1018.2
20260501212019 61 258 3.0 7.0 0.00 0.00 0.00 41 1018.3
20260501211019 60 330 3.0 9.0 0.00 0.00 0.00 42 1018.4
20260501210019 59 312 3.0 7.0 0.00 0.00 0.00 43 1018.6
20260501205021 60 236 2.0 5.0 0.00 0.00 0.00 45 1018.6
20260501204017 59 334 3.0 7.0 0.00 0.00 0.00 45 1018.6
20260501203020 59 326 3.0 7.0 0.00 0.00 0.00 46 1018.6
20260501202020 60 326 3.0 7.0 0.00 0.00 0.00 46 1018.6
20260501201022 60 255 3.0 7.0 0.00 0.00 0.00 45 1018.6
20260501200019 61 310 3.0 8.0 0.00 0.00 0.00 45 1018.6
20260501195038 60 220 2.0 6.0 0.00 0.00 0.00 46 1018.7
20260501194018 58 320 3.0 9.0 0.00 0.00 0.00 49 1018.8
20260501193041 57 233 2.0 5.0 0.00 0.00 0.00 49 1018.8
20260501192018 57 222 4.0 8.0 0.00 0.00 0.00 50 1018.9
20260501191019 57 219 4.0 8.0 0.00 0.00 0.00 50 1018.9
20260501190018 57 320 2.0 5.0 0.00 0.00 0.00 49 1019.0
20260501185019 55 353 2.0 7.0 0.00 0.00 0.00 52 1019.1
20260501184019 55 249 5.0 8.0 0.00 0.00 0.00 52 1019.0
20260501183019 54 263 2.0 8.0 0.00 0.00 0.00 54 1019.1
20260501182019 55 226 3.0 8.0 0.00 0.00 0.00 54 1019.2
20260501181020 54 256 3.0 7.0 0.00 0.00 0.00 54 1019.3
20260501180021 53 232 2.0 6.0 0.00 0.00 0.00 59 1019.4
20260501175037 52 13 2.0 8.0 0.00 0.00 0.00 60 1019.5
20260501174017 52 304 2.0 5.0 0.00 0.00 0.00 62 1019.6
20260501173022 51 257 3.0 7.0 0.00 0.00 0.00 63 1019.6
20260501172020 51 311 3.0 6.0 0.00 0.00 0.00 63 1019.6
20260501171021 51 260 2.0 4.0 0.00 0.00 0.00 64 1019.6
20260501170017 50 287 3.0 5.0 0.00 0.00 0.00 68 1019.6
20260501165017 49 260 2.0 5.0 0.00 0.00 0.00 69 1019.6
20260501164018 48 267 2.0 4.0 0.00 0.00 0.00 73 1019.7
20260501163021 48 302 3.0 6.0 0.00 0.00 0.00 75 1019.8
20260501162018 47 324 3.0 7.0 0.00 0.00 0.00 79 1019.8
20260501161040 47 222 3.0 5.0 0.00 0.00 0.00 80 1019.8
20260501160039 46 299 3.0 6.0 0.00 0.00 0.00 81 1019.8